{"data":{"norad_id":68439,"epoch":"2026-09-19T08:16:33.102912Z","epoch_age_seconds":168890,"freshness":"FRESH","line1":"1 68439U 26067Z   26262.34482758  .00010184  00000+0  45067-3 0  9998","line2":"2 68439  97.4599 219.8287 0004903  90.8087 269.3711 15.21852797 26251","mean_motion":15.21852797,"eccentricity":0.0004903,"inclination_deg":97.4599,"raan_deg":219.8287,"arg_perigee_deg":90.8087,"mean_anomaly_deg":269.3711,"bstar":0.00045067,"rev_number":2625,"period_min":94.621503659135,"perigee_km":496.87968729388,"apogee_km":503.62463570565,"semimajor_km":6878.3891614998,"source":"CELESTRAK","updated_at":"2026-09-20T09:00:24.204778Z"}}